sat.trackr.live / text

‹ back to catalog

STARLINK-31196

NORAD 58868 · 2024-019R

PAYLOAD ACTIVE UNKNOWN

§ Identity

Operator
Country
US
Launch date
2024-01-29
Launch site
AFETR
Launch vehicle
Mass (kg)
RCS (m²)

Purposes: comms

External: N2YO · Heavens-Above · Gunter

§ Orbital elements

Epoch: 2026-05-24T13:43:22.103040Z

Period
94.27 min
Inclination
43.0017°
Eccentricity
0.0001617
Mean motion
15.27580854 rev/d
Perigee alt
481.9 km
Apogee alt
484.2 km
Semi-major
6,861.2 km
B*
3.5337e-5
RAAN
180.7169°
Arg perigee
265.8072°
Mean anomaly
94.2595°
Rev number
13,066

§ Raw data

STARLINK-311961 58868U 24019R   26144.57178360  .00000710  00000+0  35337-4 0  99972 58868  43.0017 180.7169 0001617 265.8072  94.2595 15.27580854130664

JSON: /api/v1/satellites/58868 · /tle

For live sub-satellite position, see the globe view (requires WebGL).

§ Visibility from observer

Set your observer location to see the next 7 days of passes ≥ 10°. The values pass through the URL so the page stays shareable.

No JS? Fill the form by hand. The geolocation button needs JavaScript.